Weather History for Tallahassee, FL

Change the Weather History Date:

Tuesday, February 19, 2013

  Actual Average Record
Temperature  
Mean Temperature 52 °F 56 °F  
Max Temperature 69 °F 68 °F 86 °F (2000)
Min Temperature 35 °F 43 °F 20 °F (1928)
Degree Days  
Heating Degree Days 13    
Month to date heating degree days 206  
Since 1 July heating degree days 924  
Cooling Degree Days 0    
Month to date cooling degree days 8  
Year to date cooling degree days 42  
Growing Degree Days 2 (Base 50)    
Moisture  
Dew Point 50 °F    
Average Humidity 79    
Maximum Humidity 93    
Minimum Humidity 64    
Precipitation  
Precipitation 0.38 in 0.19 in 2.20 in (1927)
Month to date precipitation 1.00 3.11  
Year to date precipitation 1.85 7.45  
Sea Level Pressure  
Sea Level Pressure 30.10 in    
Wind  
Wind Speed 5 mph (WSW)    
Max Wind Speed 20 mph    
Max Gust Speed 22 mph    
Visibility 8 miles    
Events Rain    
T = Trace of Precipitation, MM = Missing Value Source: NWS Daily Summary

Daily Weather History Graph

Daily Weather History Graph

Search for Another Location

Airport:

Trip Planner

Search our weather history database for the weather conditions in past years. The results will help you decide how hot, cold, wet, or windy it might be!

Date:

Astronomy

Feb. 19, 2013 Rise Set
Actual Time 7:13 AM EST 6:29 PM EST
Civil Twilight 6:49 AM EST 6:53 PM EST
Nautical Twilight 6:21 AM EST 7:21 PM EST
Astronomical Twilight 5:53 AM EST 7:49 PM EST
Moon 1:12 PM EST (2/19) 2:32 AM EST (2/19)
Length of Visible Light 12h 04m
Length of Day
11h 15m
Waxing Gibbous, 67% of the Moon is Illuminated
Feb 19
Waxing Gibbous
Feb 25
Full
Mar 4
Last Quarter
Mar 11
New
Mar 19
First Quarter

Hourly Weather History & Observations

Time (EST) Temp. Windchill Dew Point Humidity Pressure Visibility Wind Dir Wind Speed Gust Speed Precip Events Conditions
12:53 AM 37.0 °F - 27.0 °F 67% 30.19 in 10.0 mi Calm Calm - N/A   Clear
1:53 AM 37.0 °F 33.3 °F 28.0 °F 70% 30.16 in 10.0 mi SE 4.6 mph - N/A   Clear
2:53 AM 37.9 °F - 30.0 °F 73% 30.15 in 10.0 mi Calm Calm - N/A   Clear
3:53 AM 39.0 °F 34.8 °F 32.0 °F 76% 30.11 in 10.0 mi SE 5.8 mph - N/A   Clear
4:53 AM 39.9 °F - 35.1 °F 83% 30.11 in 10.0 mi Calm Calm - N/A   Clear
5:53 AM 41.0 °F - 37.9 °F 89% 30.11 in 10.0 mi Calm Calm - N/A   Mostly Cloudy
6:53 AM 41.0 °F - 37.9 °F 89% 30.10 in 10.0 mi Calm Calm - N/A   Partly Cloudy
7:53 AM 45.0 °F - 41.0 °F 86% 30.12 in 10.0 mi Calm Calm - N/A   Partly Cloudy
8:53 AM 53.1 °F - 46.9 °F 80% 30.11 in 10.0 mi SE 4.6 mph - N/A   Overcast
9:53 AM 63.0 °F - 55.0 °F 75% 30.11 in 10.0 mi South 13.8 mph 18.4 mph N/A   Overcast
10:31 AM 66.2 °F - 57.2 °F 73% 30.11 in 10.0 mi South 11.5 mph 20.7 mph N/A   Overcast
10:53 AM 66.0 °F - 57.0 °F 73% 30.10 in 10.0 mi SSE 11.5 mph - N/A   Overcast
11:53 AM 66.0 °F - 57.9 °F 75% 30.10 in 8.0 mi SSW 16.1 mph 21.9 mph 0.00 in Rain Light Rain
1:22 PM 66.2 °F - 60.8 °F 83% 30.05 in 10.0 mi South 13.8 mph - 0.01 in Rain Light Rain
1:53 PM 66.0 °F - 61.0 °F 84% 30.03 in 6.0 mi South 16.1 mph 21.9 mph 0.01 in Rain Light Rain
2:09 PM 64.4 °F - 60.8 °F 88% 30.04 in 4.0 mi West 6.9 mph - 0.04 in Rain Rain
2:19 PM 64.4 °F - 62.6 °F 94% 30.04 in 2.5 mi West 6.9 mph - 0.07 in Rain Rain
2:24 PM 64.4 °F - 62.6 °F 94% 30.04 in 1.5 mi WSW 4.6 mph - 0.09 in Rain Heavy Rain
2:31 PM 64.4 °F - 62.6 °F 94% 30.05 in 0.8 mi NW 11.5 mph - 0.14 in Rain Heavy Rain
2:41 PM 64.4 °F - 60.8 °F 88% 30.04 in 1.2 mi WNW 5.8 mph - 0.35 in Rain Rain
2:53 PM 64.0 °F - 61.0 °F 90% 30.04 in 6.0 mi WNW 6.9 mph - 0.37 in Rain Light Rain
3:45 PM 68.0 °F - 62.6 °F 83% 30.05 in 10.0 mi West 6.9 mph - 0.00 in   Mostly Cloudy
3:53 PM 66.9 °F - 62.1 °F 84% 30.05 in 10.0 mi WNW 9.2 mph - 0.00 in   Mostly Cloudy
4:53 PM 66.9 °F - 57.9 °F 73% 30.06 in 10.0 mi NW 12.7 mph - N/A   Scattered Clouds
5:53 PM 66.0 °F - 57.0 °F 73% 30.07 in 10.0 mi NNW 8.1 mph - N/A   Mostly Cloudy
7:53 PM 60.1 °F - 54.0 °F 80% 30.12 in 10.0 mi NNW 4.6 mph - N/A   Partly Cloudy
8:53 PM 55.9 °F - 53.1 °F 90% 30.11 in 10.0 mi NNW 4.6 mph - N/A   Clear
9:53 PM 51.1 °F - 48.0 °F 89% 30.12 in 10.0 mi Calm Calm - N/A   Clear
10:53 PM 48.0 °F - 45.0 °F 89% 30.13 in 10.0 mi Calm Calm - N/A   Clear
11:53 PM 48.9 °F - 45.0 °F 86% 30.14 in 10.0 mi Calm Calm - N/A   Clear